When you browse on this site, cookies collect data to enhance your experience and personalize the content and advertising you see.
Visit our Privacy Policy to learn more. By continuing to use the site, you agree to this use of cookies and data.
  • In Österreich
  • Länderverzeichnis
  • Für 7 Tage
  • Wassertemperatur
  • Satellitenkarten
  • Wetterkarte
  • News
  • Widgets
  • user-avatar
    Anmelden

    Stündliche Wetter Goliszew

    Heute, 19 Dezember, Mittwoch

    Zeit Temperatur Niederschläge Wind Luftdruck Luftfeuchtigkeit
    00:00 -1°C° 0 mm 3 m/S 759 mmHg 90%
    01:00 -2°C° 0 mm 3 m/S 759 mmHg 89%
    02:00 -3°C° 0 mm 4 m/S 759 mmHg 89%
    03:00 -3°C° 0 mm 4 m/S 758 mmHg 88%
    04:00 -3°C° 0 mm 4 m/S 758 mmHg 87%
    05:00 -3°C° 0 mm 4 m/S 758 mmHg 87%
    06:00 -3°C° 0 mm 4 m/S 758 mmHg 87%
    07:00 -3°C° 0 mm 4 m/S 758 mmHg 87%
    08:00 -4°C° 0 mm 5 m/S 758 mmHg 85%
    09:00 -4°C° 0 mm 5 m/S 757 mmHg 83%
    10:00 -4°C° 0 mm 5 m/S 757 mmHg 81%
    11:00 -2°C° 0 mm 5 m/S 757 mmHg 79%
    12:00 -2°C° 0 mm 5 m/S 756 mmHg 77%
    13:00 -1°C° 0 mm 5 m/S 756 mmHg 75%
    14:00 -2°C° 0 mm 5 m/S 756 mmHg 76%
    15:00 -2°C° 0 mm 5 m/S 755 mmHg 77%
    16:00 -2°C° 0 mm 5 m/S 755 mmHg 78%
    17:00 -2°C° 0 mm 5 m/S 755 mmHg 78%
    18:00 -2°C° 0 mm 5 m/S 754 mmHg 78%
    19:00 -2°C° 0 mm 5 m/S 754 mmHg 77%
    20:00 -2°C° 0 mm 5 m/S 754 mmHg 77%
    21:00 -2°C° 0 mm 5 m/S 754 mmHg 77%
    22:00 -2°C° 0 mm 5 m/S 754 mmHg 76%
    23:00 -2°C° 0 mm 4 m/S 754 mmHg 77%

    Morgen, 20 Dezember, Donnerstag

    Zeit Temperatur Niederschläge Wind Luftdruck Luftfeuchtigkeit
    00:00 -2°C° 0 mm 4 m/S 753 mmHg 77%
    01:00 -2°C° 0 mm 4 m/S 753 mmHg 77%
    02:00 -2°C° 0 mm 4 m/S 753 mmHg 77%
    03:00 -1°C° 0 mm 3 m/S 753 mmHg 77%
    04:00 -1°C° 0 mm 3 m/S 753 mmHg 77%
    05:00 -1°C° 0 mm 3 m/S 753 mmHg 77%
    06:00 -1°C° 0 mm 3 m/S 753 mmHg 77%
    07:00 -1°C° 0 mm 3 m/S 753 mmHg 76%
    08:00 -1°C° 0 mm 3 m/S 753 mmHg 76%
    09:00 -2°C° 0 mm 4 m/S 753 mmHg 75%
    10:00 -2°C° 0 mm 4 m/S 753 mmHg 74%
    11:00 -2°C° 0 mm 4 m/S 753 mmHg 75%
    12:00 -2°C° 0 mm 4 m/S 752 mmHg 76%
    13:00 -2°C° 0 mm 4 m/S 752 mmHg 76%
    14:00 -2°C° 0.1 mm 4 m/S 752 mmHg 79%
    15:00 -1°C° 0.1 mm 3 m/S 752 mmHg 83%
    16:00 -1°C° 0.1 mm 3 m/S 752 mmHg 86%
    17:00 -1°C° 0.1 mm 3 m/S 752 mmHg 87%
    18:00 -1°C° 0.1 mm 3 m/S 752 mmHg 89%
    19:00 -1°C° 0.1 mm 4 m/S 752 mmHg 90%
    20:00 -1°C° 0.1 mm 4 m/S 752 mmHg 90%
    21:00 -1°C° 0.1 mm 4 m/S 752 mmHg 90%
    22:00 -1°C° 0.1 mm 4 m/S 752 mmHg 90%
    23:00 -1°C° 0 mm 4 m/S 752 mmHg 91%

    übermorgen, 21 Dezember, Freitag

    Zeit Temperatur Niederschläge Wind Luftdruck Luftfeuchtigkeit
    00:00 -1°C° 0 mm 4 m/S 752 mmHg 91%
    01:00 -1°C° 0 mm 4 m/S 752 mmHg 91%
    02:00 -1°C° 0 mm 4 m/S 752 mmHg 91%
    03:00 -1°C° 0 mm 4 m/S 751 mmHg 91%
    04:00 -1°C° 0 mm 4 m/S 751 mmHg 91%
    05:00 -1°C° 0 mm 4 m/S 751 mmHg 91%
    06:00 -1°C° 0 mm 4 m/S 751 mmHg 91%
    07:00 -1°C° 0 mm 4 m/S 750 mmHg 91%
    08:00 0°C° 0.1 mm 4 m/S 750 mmHg 90%
    09:00 0°C° 0.1 mm 5 m/S 750 mmHg 90%
    10:00 0°C° 0.1 mm 5 m/S 749 mmHg 89%
    11:00 0°C° 0 mm 5 m/S 749 mmHg 89%
    12:00 0°C° 0 mm 5 m/S 748 mmHg 88%
    13:00 +1°C° 0 mm 5 m/S 747 mmHg 87%
    14:00 0°C° 0.1 mm 4 m/S 747 mmHg 88%
    15:00 0°C° 0.1 mm 4 m/S 746 mmHg 89%
    16:00 0°C° 0.1 mm 4 m/S 745 mmHg 89%
    17:00 0°C° 0.2 mm 5 m/S 745 mmHg 89%
    18:00 0°C° 0.2 mm 5 m/S 744 mmHg 89%
    19:00 +1°C° 0.2 mm 5 m/S 743 mmHg 89%
    20:00 +1°C° 1 mm 6 m/S 742 mmHg 90%
    21:00 +2°C° 1 mm 6 m/S 741 mmHg 91%
    22:00 +2°C° 1 mm 6 m/S 740 mmHg 92%
    23:00 +3°C° 0.4 mm 6 m/S 740 mmHg 90%

    22 Dezember, Samstag

    Zeit Temperatur Niederschläge Wind Luftdruck Luftfeuchtigkeit
    00:00 +3°C° 0.4 mm 7 m/S 740 mmHg 88%
    01:00 +4°C° 0.4 mm 7 m/S 740 mmHg 86%
    02:00 +4°C° 0 mm 7 m/S 740 mmHg 85%
    03:00 +3°C° 0 mm 7 m/S 740 mmHg 84%
    04:00 +3°C° 0 mm 7 m/S 740 mmHg 83%
    05:00 +3°C° 0 mm 7 m/S 741 mmHg 84%
    06:00 +2°C° 0 mm 6 m/S 741 mmHg 85%
    07:00 +2°C° 0 mm 6 m/S 741 mmHg 86%
    08:00 +2°C° 0 mm 6 m/S 741 mmHg 87%
    09:00 +3°C° 0 mm 6 m/S 742 mmHg 87%
    10:00 +3°C° 0 mm 6 m/S 742 mmHg 88%
    11:00 +3°C° 0.5 mm 6 m/S 741 mmHg 88%
    12:00 +3°C° 0.5 mm 6 m/S 741 mmHg 89%
    13:00 +3°C° 0.5 mm 6 m/S 741 mmHg 89%
    14:00 +3°C° 0.4 mm 5 m/S 741 mmHg 90%
    15:00 +3°C° 0.4 mm 5 m/S 741 mmHg 91%
    16:00 +3°C° 0.4 mm 5 m/S 741 mmHg 92%
    17:00 +3°C° 0.5 mm 5 m/S 742 mmHg 92%
    18:00 +4°C° 0.5 mm 6 m/S 742 mmHg 92%
    19:00 +4°C° 0.5 mm 6 m/S 743 mmHg 91%
    20:00 +4°C° 0.3 mm 7 m/S 743 mmHg 88%
    21:00 +4°C° 0.3 mm 8 m/S 743 mmHg 84%
    22:00 +3°C° 0.3 mm 9 m/S 744 mmHg 81%
    23:00 +3°C° 0.1 mm 9 m/S 744 mmHg 80%

    23 Dezember, Sonntag

    Zeit Temperatur Niederschläge Wind Luftdruck Luftfeuchtigkeit
    00:00 +3°C° 0.1 mm 9 m/S 744 mmHg 80%
    01:00 +3°C° 0.1 mm 9 m/S 744 mmHg 80%
    02:00 +3°C° 0.1 mm 9 m/S 745 mmHg 81%
    03:00 +2°C° 0.1 mm 8 m/S 745 mmHg 82%
    04:00 +2°C° 0.1 mm 8 m/S 745 mmHg 83%
    05:00 +3°C° 0.2 mm 7 m/S 746 mmHg 84%
    06:00 +3°C° 0.2 mm 6 m/S 746 mmHg 85%
    07:00 +3°C° 0.2 mm 6 m/S 747 mmHg 87%
    08:00 +3°C° 0.6 mm 6 m/S 747 mmHg 87%
    09:00 +3°C° 0.6 mm 5 m/S 747 mmHg 87%
    10:00 +3°C° 0.6 mm 5 m/S 748 mmHg 88%
    11:00 +3°C° 0.4 mm 6 m/S 748 mmHg 86%
    12:00 +3°C° 0.4 mm 6 m/S 748 mmHg 85%
    13:00 +3°C° 0.4 mm 6 m/S 748 mmHg 84%
    14:00 +3°C° 0.2 mm 6 m/S 748 mmHg 84%
    15:00 +3°C° 0.2 mm 6 m/S 749 mmHg 84%
    16:00 +3°C° 0.2 mm 6 m/S 749 mmHg 85%
    17:00 +3°C° 0.2 mm 6 m/S 749 mmHg 85%
    18:00 +3°C° 0.2 mm 5 m/S 749 mmHg 86%
    19:00 +2°C° 0.2 mm 5 m/S 749 mmHg 87%
    20:00 +3°C° 0.2 mm 4 m/S 749 mmHg 88%
    21:00 +3°C° 0.2 mm 4 m/S 749 mmHg 89%
    22:00 +3°C° 0.2 mm 3 m/S 750 mmHg 91%
    23:00 +1°C° 1.1 mm 4 m/S 750 mmHg 91%

    24 Dezember, Montag

    Zeit Temperatur Niederschläge Wind Luftdruck Luftfeuchtigkeit
    00:00 +1°C° 1.1 mm 4 m/S 750 mmHg 90%
    01:00 +1°C° 1.1 mm 5 m/S 750 mmHg 90%
    02:00 +1°C° 0.2 mm 5 m/S 751 mmHg 90%
    03:00 0°C° 0.2 mm 4 m/S 751 mmHg 90%
    04:00 -1°C° 0.2 mm 4 m/S 752 mmHg 89%
    05:00 0°C° 0 mm 3 m/S 752 mmHg 91%
    06:00 -1°C° 0 mm 3 m/S 753 mmHg 92%
    07:00 -1°C° 0 mm 2 m/S 754 mmHg 93%
    08:00 +1°C° 0 mm 2 m/S 754 mmHg 92%
    09:00 +1°C° 0 mm 2 m/S 755 mmHg 90%
    10:00 +2°C° 0 mm 2 m/S 755 mmHg 88%
    11:00 +1°C° 0.1 mm 3 m/S 755 mmHg 88%
    12:00 +2°C° 0.1 mm 3 m/S 755 mmHg 88%
    13:00 +1°C° 0.1 mm 4 m/S 755 mmHg 88%
    14:00 +1°C° 0.2 mm 4 m/S 755 mmHg 89%
    15:00 +1°C° 0.2 mm 4 m/S 755 mmHg 90%
    16:00 +3°C° 0.2 mm 4 m/S 755 mmHg 91%
    17:00 +1°C° 0.2 mm 4 m/S 755 mmHg 92%
    18:00 +1°C° 0.2 mm 4 m/S 755 mmHg 93%
    19:00 +1°C° 0.2 mm 4 m/S 755 mmHg 93%
    20:00 +1°C° 0.1 mm 4 m/S 755 mmHg 92%
    21:00 +1°C° 0.1 mm 5 m/S 755 mmHg 90%
    22:00 +1°C° 0.1 mm 5 m/S 755 mmHg 89%
    23:00 0°C° 0.1 mm 5 m/S 755 mmHg 87%
    Mehr zeigen